TIME,DELAY(SENSOR),PRES,T(CTD),SAL,OXYGEN,RAWTEMP,T(OPTODE),TCPHASE,FLUOR,BETA(BETA700),BETA(BETA412),BETA(BETA440),CDOM,C(CSC),ED(ED411.90),ED(ED443.80),ED(ED489.40),ED(ED554.70),LU(LU412.20),LU(LU443.80),LU(LU489.40),LU(LU555.00),COMP,TILTX,TILTX(TILTY),CHECK
1344611295,5807,491.8200073242187500,16.7693004608154300,36.3261985778808600,223.0657958984375000,196.0711059570312500,16.7667598724365230,31.8854808807373050,51,101,98,80,68,14093,2146951579,2147516059,2147270939,2147471780,2147084251,2146952018,2147658240,2147119954,2678,-2,8,39425
1344611412,5806,480.5400085449219000,16.8817005157470700,36.3474998474121100,224.0559997558593800,192.5345001220703000,16.8733692169189450,31.7858695983886720,50,101,99,79,69,14094,2146955190,2147514413,2147269897,2147472073,2147087981,2146956982,2147659053,2147121344,2884,-2,8,47745
1344611544,5807,469.7300109863281000,16.9911003112792970,36.3694000244140600,226.1260070800781200,188.6636047363281200,16.9900798797607420,31.6262207031250000,50,103,99,80,67,14091,2146952694,2147513106,2147268077,2147469586,2147084644,2146953462,2147661650,2147124342,2993,-2,8,14531
1344611679,5806,458.9100036621094000,17.1014995574951170,36.3907012939453100,227.2527008056640600,185.0646057128906200,17.0985908508300780,31.5198001861572270,51,102,98,81,68,14090,2146949677,2147513755,2147269878,2147467437,2147086326,2146956059,2147660397,2147121618,3389,-3,8,29344
1344611822,5803,448.0899963378906000,17.1907005310058600,36.4093017578125000,229.6755065917968800,182.0303039550781200,17.1900997161865230,31.3568096160888670,51,103,97,81,67,14090,2146952329,2147513910,2147269065,2147466596,2147086729,2146958692,2147658258,2147125686,2648,-2,8,5361
1344611987,5804,435.5100097656250000,17.2947006225585940,36.4300994873046900,231.5222015380859400,178.6983032226562500,17.2905902862548830,31.2196407318115230,50,105,98,81,67,14091,2146950308,2147514230,2147268361,2147466404,2147085174,2146956443,2147659254,2147123190,3433,-3,8,63763
1344612106,5804,424.6099853515625000,17.3878993988037100,36.4494018554687500,233.2436065673828000,175.3919982910156200,17.3903293609619140,31.0902900695800780,50,103,98,78,66,14091,2146951826,2147515492,2147268205,2147465517,2147082505,2146956900,2147655689,2147121472,3522,-2,8,39287
1344612216,5806,414.4100036621094000,17.4552993774414060,36.4617004394531250,234.1040039062500000,173.4315948486328000,17.4494705200195300,31.0217609405517580,51,102,98,80,66,14092,2146951332,2147512512,2147270528,2147464073,2147082413,2146956150,2147655186,2147125348,340,-2,8,27086
1344612339,5806,403.2699890136719000,17.5408000946044920,36.4770011901855500,234.7942962646484400,170.5451049804687500,17.5365600585937500,30.9493103027343750,50,102,98,79,67,14091,2146953444,2147514221,2147269942,2147462966,2147085494,2146953883,2147654948,2147122157,559,-2,8,60165
1344612460,5806,392.4500122070312500,17.5984992980957030,36.4875984191894500,235.1985015869140600,168.6990966796875000,17.5922603607177730,30.9048995971679700,51,104,98,80,67,14090,2146953289,2147517165,2147269686,2147461193,2147086820,2146954203,2147653723,2147117668,947,-2,8,15458
1344612584,5806,381.4800109863281000,17.6735000610351560,36.5004005432128900,235.4954071044922000,166.0937042236328000,17.6708908081054700,30.8556308746337900,51,102,99,81,67,14091,2146952365,2147513974,2147271296,2147463104,2147086573,2146957184,2147657618,2147122953,744,-2,8,41964
1344612716,5808,369.9899902343750000,17.7451000213623050,36.5135002136230500,236.2660980224609400,163.8161010742187500,17.7396392822265620,30.7879104614257800,51,103,98,80,66,14089,2146950418,2147512512,2147273636,2147462043,2147086208,2146954240,2147657709,2147122404,261,-2,8,47964
1344612837,5807,359.6700134277344000,17.7950992584228500,36.5214004516601560,236.3587951660156200,162.1190032958984400,17.7908592224121100,30.7605495452880860,50,102,98,80,66,14088,2146954441,2147515227,2147273526,2147462939,2147087104,2146959222,2147654491,2147123044,502,-2,8,12582
1344612971,5807,348.4200134277344000,17.8321990966796880,36.5247993469238300,235.9608001708984400,160.7716064453125000,17.8315391540527340,30.7613697052001950,50,103,99,80,68,14087,2146951707,2147514404,2147274294,2147458331,2147087542,2146960667,2147657929,2147118838,3429,-2,8,9833
1344613103,5809,337.6099853515625000,17.8938007354736330,36.5325012207031250,235.3200988769531200,158.7953033447265600,17.8912105560302730,30.7658405303955080,50,102,100,80,67,14089,2146953746,2147516635,2147275309,2147460900,2147088173,2146957814,2147657261,2147118482,79,-2,8,10406
1344613238,5806,326.5599975585937500,17.9430007934570300,36.5363998413085940,234.5037994384765600,157.2411041259765600,17.9381408691406250,30.7844104766845700,51,105,99,82,67,14085,2146955126,2147512512,2147279981,2147465380,2147087213,2146960795,2147663058,2147118683,465,-2,8,17089
1344613370,5808,315.5400085449219000,17.9979000091552730,36.5429992675781250,233.4878997802734400,155.4299011230468800,17.9928302764892580,30.8093605041503900,50,103,100,80,67,14086,2146951122,2147516150,2147283565,2147461696,2147084690,2146959149,2147660004,2147121728,329,-2,8,43460
1344613505,5803,304.1000061035156000,18.0564994812011720,36.5522994995117200,233.2039031982422000,153.4311065673828000,18.0531997680664060,30.7964801788330080,50,105,98,80,67,14086,2146952713,2147525549,2147293778,2147461805,2147086171,2146961206,2147670390,2147119853,400,-2,8,18226
1344613626,5807,293.6900024414062500,18.1352996826171880,36.5652999877929700,234.1387023925781200,150.9571075439453000,18.1279296875000000,30.7179203033447270,51,104,98,80,66,14085,2146953526,2147526336,2147303972,2147463780,2147088649,2146966116,2147676571,2147120649,364,-2,8,61684
1344613758,5805,282.2399902343750000,18.1961002349853500,36.5710983276367200,233.3977050781250000,148.9555053710937500,18.1883907318115230,30.7272701263427730,51,104,99,79,68,14086,2146952896,2147530020,2147317330,2147459392,2147087844,2146966262,2147681024,2147115840,280,-2,8,33139
1344613881,5808,271.4299926757812500,18.2535991668701170,36.5801010131835940,233.3509063720703000,146.9645996093750000,18.2485504150390620,30.7028694152832030,50,103,99,81,68,14085,2146952356,2147537014,2147338413,2147460470,2147088466,2146971209,2147694125,2147122614,831,-2,8,11549
1344614013,5806,259.9800109863281000,18.3290996551513670,36.5890007019043000,233.0254058837890600,144.4178009033203000,18.3255100250244140,30.6847705841064450,50,103,97,82,66,14076,2146952685,2147544740,2147360905,2147460992,2147086994,2146980150,2147707638,2147123885,1113,-2,8,35439
1344614137,5806,249.4900054931640600,18.3838005065917970,36.5920982360839840,231.6316070556640600,142.5424957275390600,18.3821907043457030,30.7276496887207030,51,103,98,81,67,14076,2146956617,2147556982,2147394605,2147459419,2147089554,2146990372,2147722276,2147119771,1189,-2,8,29213
1344614269,5806,238.8000030517578000,18.4624004364013670,36.5969009399414060,230.2250976562500000,140.0970001220703000,18.4561100006103500,30.7639198303222660,50,105,99,81,67,14076,2146956589,2147575981,2147439981,2147459830,2147089636,2147004754,2147750683,2147130706,357,-2,8,5264
1344614445,5806,225.0700073242187500,18.6109008789062500,36.6046981811523440,228.4055938720703000,134.5111999511718800,18.6250095367431640,30.7791500091552730,50,107,98,80,67,14076,2146960457,2147615835,2147533211,2147457270,2147092370,2147032557,2147804955,2147131556,285,-2,8,10999
1344614555,5806,214.4499969482422000,18.7698993682861330,36.6001014709472660,229.1405944824218800,129.8348999023437500,18.7664699554443360,30.6806907653808600,51,103,99,81,67,14076,2146967954,2147659757,2147636964,2147460361,2147093037,2147063972,2147862930,2147135076,470,-2,8,56603
1344614665,5809,202.9400024414062500,18.8791999816894530,36.5802993774414060,235.9178009033203000,125.9057998657226600,18.8853702545166000,30.3002109527587900,52,104,98,82,66,14083,2146971986,2147720978,2147792146,2147459913,2147099035,2147100909,2147944182,2147141321,980,-2,8,2491
1344614739,5808,195.4600067138672000,19.0149993896484380,36.5794982910156250,240.0395965576172000,121.7704010009765600,19.0105495452880860,30.0518608093261720,50,103,100,81,66,14082,2146977636,2147762724,2147884589,2147457088,2147100233,2147134537,2147997888,2147148269,970,-2,8,14018
1344614794,5803,190.3600006103515600,19.0930004119873050,36.5862998962402340,242.4875030517578000,119.3760986328125000,19.0830497741699220,29.9072303771972660,50,104,97,81,66,14083,2146985005,2147803136,2147977627,2147458514,2147103469,2147163044,2148051977,2147146432,1023,-2,8,30007
1344614849,5807,185.6300048828125000,19.1697998046875000,36.5913009643554700,244.5854034423828000,116.3917999267578100,19.1734409332275400,29.7724494934082030,53,103,99,80,65,14078,2146988324,2147848694,2148079771,2147459328,2147107830,2147202313,2148104118,2147151323,879,-2,8,21872
1344614904,5806,181.2799987792968800,19.2266998291015620,36.5940017700195300,247.0626983642578000,114.8074035644531200,19.2214393615722660,29.6398391723632800,53,104,98,81,64,14082,2146991881,2147887259,2148148315,2147458642,2147113389,2147222372,2148139574,2147156873,807,-2,8,40390
1344614959,5806,177.2500000000000000,19.2500000000000000,36.5918006896972660,249.3580932617187500,113.6828002929687500,19.2555103302001950,29.5227909088134770,53,104,98,81,65,14081,2146988013,2147800493,2147915200,2147459008,2147105938,2147161078,2148014802,2147148580,637,-2,8,35732
1344615014,5809,173.5800018310547000,19.2756004333496100,36.5890998840332000,251.1486053466797000,113.1420974731445300,19.2718906402587900,29.4367294311523440,54,110,98,80,64,14077,2147020672,2148017654,2148431872,2147458093,2147121901,2147321728,2148307465,2147163986,547,-2,8,54802
1344615092,5807,169.1000061035156200,19.2907009124755860,36.5835990905761700,252.9046936035156200,112.6272964477539000,19.2874908447265620,29.3529891967773440,58,109,99,82,63,14070,2147033618,2148072173,2148514697,2147456795,2147135259,2147356955,2148342838,2147167113,641,-2,8,60138
1344615169,5806,165.3699951171875000,19.3141002655029300,36.5866012573242200,254.1972045898437500,111.8104019165039000,19.3122501373291000,29.2863693237304700,60,111,99,83,64,14070,2147054107,2148172406,2148708544,2147460114,2147147593,2147431314,2148461440,2147173458,786,-2,8,11687
1344615246,5807,161.2599945068359400,19.3337001800537100,36.5857009887695300,254.6161956787109400,111.2870025634765600,19.3281097412109380,29.2612495422363280,67,114,100,82,65,14064,2147076827,2148274715,2148915309,2147462811,2147159396,2147500251,2148566848,2147181924,877,-2,8,23297
1344615312,5807,157.2500000000000000,19.3469009399414060,36.5875015258789060,254.9768981933593800,110.8341979980468800,19.3418292999267580,29.2400703430175780,70,115,99,81,64,14057,2147104310,2148384960,2149137069,2147465709,2147170203,2147570861,2148670061,2147187876,518,-3,8,32043
1344615381,5805,152.4799957275390600,19.3565998077392580,36.5866012573242200,255.3289031982422000,110.4656982421875000,19.3530006408691400,29.2199707031250000,76,119,100,84,64,14050,2147141001,2148543305,2149455451,2147465197,2147189092,2147663588,2148832246,2147197010,474,-2,8,23647
1344615436,5804,148.3999938964843800,19.3644008636474600,36.5881996154785160,255.6020965576172000,110.1633987426757800,19.3621597290039060,29.2042808532714840,78,118,100,84,64,14044,2147183049,2148698340,2149756178,2147463762,2147214400,2147754633,2148974546,2147206281,518,-2,8,3285
1344615491,5804,144.1399993896484400,19.3708000183105470,36.5866012573242200,255.7799072265625000,110.0384979248046900,19.3659496307373050,29.1950302124023440,85,123,100,82,64,14047,2147237686,2148903396,2150157293,2147471286,2147241956,2147869622,2149160822,2147216886,419,-2,8,5379
1344615546,5806,139.9400024414062500,19.3696994781494140,36.5811004638671900,255.6730957031250000,110.1232986450195300,19.3633804321289060,29.2008705139160160,86,119,99,84,63,14037,2147304064,2149171245,2150638070,2147478994,2147278948,2148020105,2149384045,2147233344,257,-3,8,24739
1344615601,5804,135.8099975585937500,19.3917007446289060,36.5825004577636700,255.2810974121093800,109.2842025756836000,19.3888092041015620,29.2067699432373050,93,120,100,82,64,14038,2147395492,2149471844,2151182921,2147482733,2147319835,2148172022,2149613504,2147248557,57,-2,8,43365
1344615656,5804,131.8099975585937500,19.4099006652832030,36.5839996337890600,255.3735046386718800,108.7276000976562500,19.4056892395019530,29.1958293914794920,102,119,101,82,65,14033,2147504292,2149847625,2151848054,2147495232,2147366665,2148338349,2149869037,2147272082,3279,-2,8,41719
1344615734,5804,126.7099990844726600,19.4333992004394530,36.5830001831054700,256.3197021484375000,107.9897994995117200,19.4280490875244140,29.1455993652343750,107,116,100,83,64,14034,2147678281,2150407652,2152811337,2147507026,2147443812,2148583424,2150235181,2147297152,3328,-2,8,52052
1344615800,5805,123.3000030517578100,19.4491996765136720,36.5834999084472660,257.5392150878906000,107.4626007080078100,19.4440402984619140,29.0867099761962900,110,116,99,82,65,14033,2147836489,2150880310,2153579529,2147523318,2147491776,2148769243,2150521179,2147322752,216,-2,8,49119
1344615877,5806,119.6699981689453100,19.4689998626709000,36.5811996459960940,258.2564086914062500,106.7742004394531200,19.4649105072021500,29.0473804473876950,115,119,101,83,65,14022,2148074733,2151590610,2154725604,2147543213,2147590372,2149057060,2150917376,2147356617,224,-2,8,55948
1344615965,5808,115.7300033569336000,19.4920997619628900,36.5810012817382800,258.4088134765625000,106.0893020629882800,19.4856796264648440,29.0321598052978500,118,116,101,81,65,14022,2148411574,2152504283,2156113225,2147572754,2147714742,2149426934,2151445083,2147398637,738,-2,8,9124
1344616066,5805,111.6800003051757800,19.5263996124267580,36.5833015441894500,260.7965087890625000,104.8982009887695300,19.5217895507812500,28.9160194396972660,118,114,101,81,66,14025,2148853558,2153652324,2157757019,2147609371,2147879753,2149859510,2152019794,2147453732,952,-2,8,43567
1344616165,5807,107.9800033569336000,19.5634994506835940,36.5830001831054700,262.6654968261719000,103.7219009399414000,19.5574703216552730,28.8228092193603500,115,115,100,83,68,14022,2149349165,2154867693,2159496996,2147654125,2148051026,2150300068,2152623698,2147507145,514,-3,8,36422
1344616275,5808,104.0100021362304700,19.6091995239257800,36.5856018066406250,264.7276916503906000,102.6396026611328100,19.5902996063232420,28.7237701416015620,110,115,101,82,66,14022,2150036818,2156485083,2161682422,2147718884,2148308370,2150913490,2153388580,2147582235,3262,-2,8,54789
1344616383,5806,99.6999969482421900,19.6912002563476560,36.5853004455566400,268.3747863769531000,99.7335662841796900,19.6784591674804700,28.5377006530761720,105,115,100,83,65,14014,2151145929,2158976521,2164955291,2147829869,2148725147,2151905755,2154579446,2147703661,3569,-2,8,20910
1344616438,5807,97.2600021362304700,19.7287006378173830,36.5839996337890600,269.9570007324219000,98.1630630493164000,19.7261199951171880,28.4539508819580080,110,117,102,83,66,14007,2151965440,2160707849,2167055332,2147904512,2149040777,2152609078,2155390610,2147783414,409,-2,8,57516
1344616493,5807,95.0800018310546900,19.7908000946044920,36.5886001586914060,271.6543884277344000,96.2654266357421900,19.7837104797363280,28.3619403839111330,107,117,102,84,66,13992,2152798016,2162332160,2168863606,2147976685,2149368329,2153296896,2156145801,2147862665,469,-2,8,15611
1344616548,5808,93.0400009155273400,19.8572006225585940,36.5889015197753900,273.2074890136719000,94.1221466064453100,19.8487796783447270,28.2732505798339840,113,119,102,82,64,13995,2153755602,2164162066,2170898459,2148056374,2149771264,2154099812,2156990025,2147950921,502,-2,8,42369
1344616603,5804,91.1299972534179700,19.9167995452880860,36.5903015136718750,274.5090026855469000,92.4239883422851600,19.9003391265869140,28.2005100250244140,106,119,101,84,64,13988,2154837120,2166227090,2173178422,2148152905,2150203776,2154986349,2157917613,2148049298,520,-2,8,21390
1344616681,5804,88.0100021362304700,20.0550003051757800,36.5909004211425800,275.4634094238281000,87.6059265136718800,20.0466899871826170,28.1026496887207030,100,122,102,83,65,13982,2156995227,2170189696,2177486125,2148360000,2151097316,2156711817,2159675410,2148241929,817,-2,8,51027
1344616736,5808,85.4000015258789000,20.1648998260498050,36.5964012145996100,276.3406982421875000,83.8995971679687500,20.1593303680419920,28.0221900939941400,100,122,103,85,63,13969,2159112704,2173926006,2181389924,2148561307,2152008100,2158427437,2161396836,2148426706,691,-2,8,60579
1344616791,5805,82.8499984741211000,20.2595005035400400,36.5988006591796900,277.8947143554687500,80.9547805786132800,20.2488594055175780,27.9250507354736330,96,124,103,84,63,13967,2161615835,2178020644,2185473161,2148801206,2153136301,2160457526,2163288137,2148625005,774,-2,8,30383
1344616846,5805,80.3600006103515600,20.3281993865966800,36.6008987426757800,279.5526123046875000,78.4987411499023400,20.3235607147216800,27.8306999206542970,94,124,103,84,64,13961,2164590070,2182749970,2190197065,2149092699,2154442733,2162709860,2165396644,2148843968,904,-2,8,36484
1344616901,5806,77.9599990844726600,20.4046993255615230,36.6008987426757800,280.7112121582031000,75.1891479492187500,20.4242496490478500,27.7450408935546880,90,124,104,83,63,13965,2167787245,2187559424,2194759872,2149402450,2155983762,2165301321,2167645842,2149103524,865,-3,8,11347
1344616956,5803,75.7699966430664000,20.5844001770019530,36.6012001037597660,281.5136108398437500,69.5581512451171900,20.5956592559814450,27.6448898315429700,90,126,105,86,62,13954,2171041161,2192384265,2199437641,2149732845,2157542409,2167801499,2169685248,2149318628,3473,-2,8,45607
1344617013,5804,73.6100006103515600,20.7007007598876950,36.6022987365722660,282.3374023437500000,66.2921295166015600,20.6951408386230470,27.5733299255371100,85,123,105,85,63,13950,2173493385,2195392841,2201717440,2150010340,2158849088,2169753718,2171206601,2149470875,2436,-2,8,61910
1344617068,5805,71.4499969482421900,20.8423004150390620,36.6050987243652340,283.1516113281250000,62.0492095947265600,20.8244400024414060,27.4902000427246100,85,126,104,85,60,13941,2178523483,2203158089,2209767524,2150630107,2161380342,2173883766,2175044461,2149895387,1808,-3,9,48092
1344617123,5805,69.2500000000000000,20.8752002716064450,36.6054000854492200,283.3664855957031000,60.5943603515625000,20.8687896728515620,27.4642791748046880,86,125,105,85,63,13936,2182346450,2208445366,2214919405,2151196946,2163545718,2177175570,2177949860,2150263259,1282,-2,8,387
1344617178,5806,66.9300003051757800,21.0543003082275400,36.6054992675781250,283.0722961425781000,55.3835983276367200,21.0277194976806640,27.4113407135009770,82,128,105,86,61,13927,2186770313,2214617846,2221229723,2151917312,2165995501,2180835428,2181072000,2150664420,1002,-2,8,49790
1344617233,5803,64.8799972534179700,21.1380996704101560,36.6043014526367200,283.6181945800781000,53.3881301879882800,21.0886192321777340,27.3663597106933600,80,128,106,86,63,13928,2189466157,2217789001,2223965586,2152399314,2167876406,2183607323,2183300964,2150926838,648,-2,8,53669
1344617299,5806,63.2700004577636700,21.2476005554199220,36.6021995544433600,283.4054870605469000,49.4972000122070300,21.2074108123779300,27.3265800476074220,79,124,106,86,61,13927,2191706669,2220466788,2226413202,2152850249,2169378523,2185668717,2185011254,2151160173,704,-2,8,5061
1344617398,5806,61.3199996948242200,21.3544998168945300,36.5983009338378900,284.1925964355469000,44.8996391296386700,21.3478507995605470,27.2409000396728500,77,128,107,88,58,13913,2198757723,2230353526,2236450057,2154071570,2173561563,2191646400,2189926747,2151762496,1257,-3,8,986
1344617486,5803,59.3499984741210940,21.4993000030517580,36.5965003967285160,284.6387023925781000,40.1355781555175800,21.4934902191162100,27.1660900115966800,74,129,106,86,57,13924,2203860123,2235628571,2240215314,2154780306,2177945755,2197496548,2194223286,2152272978,1177,-2,8,20523
1344617596,5807,57.6599998474121100,21.7623004913330080,36.5819015502929700,284.5274047851562500,32.0633010864257800,21.7404994964599600,27.0720596313476560,71,128,106,88,59,13919,2212998582,2247824621,2252819172,2156328301,2184010313,2205645586,2200272054,2153006811,218,-2,8,23310
1344617730,5807,54.9500007629394500,21.9216995239257800,36.5773010253906250,284.3465881347656000,26.3508796691894530,21.9155006408691400,27.0093498229980470,71,128,106,88,61,13907,2222915355,2258178532,2260953691,2158223021,2192750555,2216312374,2207402404,2153874916,2030,-3,8,28929
1344617872,5807,50.6199989318847660,22.1268005371093750,36.5699996948242200,283.7226867675781000,19.4183502197265620,22.1280994415283200,26.9484291076660160,66,131,108,85,61,13899,2242632548,2281581705,2283449124,2162444434,2208163401,2235190034,2221520320,2155939638,815,-2,9,36410
1344617906,5807,49.4799995422363300,22.1707000732421880,36.5679016113281250,283.4833068847656000,18.1717891693115230,22.1663494110107420,26.9423198699951170,68,132,106,87,58,13899,2248082852,2287853723,2289504292,2163696960,2212561490,2240667958,2225574820,2156519506,764,-3,8,26982
1344617963,5805,47.7900009155273440,22.2429008483886720,36.5621986389160160,283.8854064941406000,15.6496696472167970,22.2437705993652340,26.8969192504882800,66,132,108,87,61,13894,2255342016,2296193901,2297951350,2166219465,2216733659,2244344027,2227462820,2157134902,372,-3,9,61284
1344618031,5804,45.7400016784668000,22.4754009246826170,36.5789985656738300,280.2041931152344000,8.5693264007568360,22.4613094329834000,26.9488105773925780,69,128,105,87,61,13906,2276596077,2321078564,2320855798,2170836196,2236796288,2270682422,2248091126,2159858962,796,-3,8,33458
1344618088,5806,43.7099990844726560,22.5702991485595700,36.5670013427734400,276.8673095703125000,0.6969898939132690,22.7035007476806640,26.9799995422363280,66,129,106,87,59,13907,2260635648,2295377088,2292603684,2168305270,2223980388,2248881554,2228188955,2157721536,647,-4,8,40600
1344618157,5806,41.9199981689453100,22.9594993591308600,36.5452995300293000,273.6599121093750000,-6.7877588272094730,22.9340991973876950,27.0122795104980470,64,136,105,87,61,13912,2290416969,2333416256,2330644260,2175644242,2248898898,2283051510,2255445010,2161238710,2456,-3,8,4238
1344618357,5803,39.8100013732910160,23.3180999755859380,36.4958992004394500,274.5559997558594000,-19.3750801086425780,23.3226509094238280,26.8257102966308600,62,129,105,88,59,13907,2305319634,2348118729,2343557001,2180356050,2265173019,2299594413,2266479378,2163421184,2604,-3,8,25398
1344618438,5805,37.9099998474121100,23.5251998901367200,36.4897003173828100,270.3778076171875000,-25.6642208099365230,23.5171508789062500,26.9111499786376950,61,127,105,86,55,13917,2317264374,2362357769,2358714048,2186189458,2276135680,2310168804,2274390043,2165319881,1367,-3,8,65133
1344618591,5807,35.9300003051757800,23.6089000701904300,36.4868011474609400,267.6711120605469000,-29.0920295715332030,23.6232700347900400,26.9755706787109380,61,123,105,86,60,13921,2315483218,2356796946,2351587867,2187085650,2281664219,2315242624,2277572854,2166307867,1024,-2,8,55146
1344618718,5804,33.7099990844726560,23.7835998535156250,36.4589004516601560,267.0950012207031000,-34.2893981933593750,23.7843208312988280,26.9354896545410160,60,127,104,85,55,13924,2339566857,2383192009,2377128393,2197129920,2306847652,2341514898,2295846729,2169993243,962,-2,8,50191
1344618871,5805,31.9899997711181640,24.0461006164550780,36.4500999450683600,265.5184020996094000,-43.2918510437011700,24.0636806488037100,26.8889808654785160,58,127,105,86,59,13923,2351410185,2395698258,2389874505,2202867858,2320903744,2353273481,2300252626,2170916324,223,-3,8,9534
1344619011,5805,29.6599998474121100,24.6124000549316400,36.3927001953125000,262.5639038085937500,-59.9083786010742200,24.5807991027832030,26.8061408996582030,56,132,106,88,58,13926,2366571163,2413067867,2409675300,2217415945,2339693366,2371194834,2310478363,2172743232,3155,-2,8,8356